EW6996 Weather Reports


Display with metric or nautical units.
time (UTC)temp
F
wind
direction
speed
MPH
gust
MPH
rain 1hr
in
rain 24hr
in
rain mn
in
humidity
%
barometer
mb
20180817073425 66 126 1.0 5.0 0.00 0.00 0.00 56 1035.1
20180817072929 65 134 3.0 5.0 0.00 0.00 0.00 55 1035.1
20180817072425 65 141 2.0 5.0 0.00 0.00 0.00 58 1035.1
20180817071930 66 127 0.0 5.0 0.00 0.00 0.00 58 1035.3
20180817071426 66 111 1.0 5.0 0.00 0.00 0.00 58 1035.1
20180817070928 66 137 2.0 5.0 0.00 0.00 0.00 58 1035.1
20180817070424 67 137 2.0 8.0 0.00 0.00 0.00 58 1035.1
20180817065929 67 133 6.0 8.0 0.00 0.00 0.00 57 1035.1
20180817065425 67 102 0.0 5.0 0.00 0.00 0.00 54 1035.1
20180817064926 67 113 0.0 5.0 0.00 0.00 0.00 54 1035.1
20180817064425 67 128 1.0 8.0 0.00 0.00 0.00 53 1035.1
20180817063927 67 124 0.0 8.0 0.00 0.00 0.00 53 1035.1
20180817063425 67 140 2.0 5.0 0.00 0.00 0.00 53 1035.1
20180817062926 67 144 5.0 5.0 0.00 0.00 0.00 53 1035.1
20180817062424 67 127 1.0 5.0 0.00 0.00 0.00 53 1035.3
20180817061926 67 140 0.0 8.0 0.00 0.00 0.00 53 1035.3
20180817061424 67 130 0.0 8.0 0.00 0.00 0.00 54 1035.3
20180817060926 67 113 0.0 8.0 0.00 0.00 0.00 54 1035.3
20180817060424 67 145 2.0 8.0 0.00 0.00 0.00 53 1035.3
20180817055926 67 138 3.0 8.0 0.00 0.00 0.00 53 1035.1
20180817055424 67 132 3.0 8.0 0.00 0.00 0.00 54 1035.3
20180817054926 67 123 1.0 8.0 0.00 0.00 0.00 54 1035.4
20180817054423 67 134 3.0 8.0 0.00 0.00 0.00 54 1035.4
20180817053926 67 147 3.0 8.0 0.00 0.00 0.00 54 1035.4
20180817053423 67 150 4.0 5.0 0.00 0.00 0.00 54 1035.5
20180817052925 67 133 2.0 8.0 0.00 0.00 0.00 54 1035.6
20180817052424 67 139 3.0 8.0 0.00 0.00 0.00 54 1035.6
20180817051925 67 134 3.0 8.0 0.00 0.00 0.00 54 1035.5
20180817051424 67 126 2.0 10.0 0.00 0.00 0.00 54 1035.5
20180817050924 67 131 3.0 10.0 0.00 0.00 0.00 54 1035.4
20180817050422 67 146 2.0 8.0 0.00 0.00 0.00 54 1035.4
20180817045924 67 128 4.0 5.0 0.00 0.00 0.00 55 1035.5
20180817045424 67 151 3.0 8.0 0.00 0.00 0.00 55 1035.4
20180817044925 67 126 2.0 8.0 0.00 0.00 0.00 55 1035.4
20180817044422 68 122 2.0 5.0 0.00 0.00 0.00 55 1035.4
20180817043923 68 137 2.0 5.0 0.00 0.00 0.00 54 1035.4
20180817043422 68 128 2.0 5.0 0.00 0.00 0.00 54 1035.4
20180817042923 69 123 2.0 5.0 0.00 0.00 0.00 53 1035.5
20180817042422 69 140 2.0 8.0 0.00 0.00 0.00 52 1035.5
20180817041925 69 133 2.0 8.0 0.00 0.00 0.00 52 1035.5
20180817041421 69 141 2.0 5.0 0.00 0.00 0.00 51 1035.5
20180817040923 70 136 1.0 5.0 0.00 0.00 0.00 51 1035.4
20180817040421 70 143 2.0 5.0 0.00 0.00 0.00 51 1035.4
20180817035924 71 128 0.0 5.0 0.00 0.00 0.00 51 1035.4
20180817035421 71 143 2.0 2.0 0.00 0.00 0.00 50 1035.3
20180817034923 72 120 0.0 8.0 0.00 0.00 0.00 50 1035.3
20180817034421 72 114 0.0 8.0 0.00 0.00 0.00 49 1035.1
20180817033924 72 128 1.0 8.0 0.00 0.00 0.00 49 1035.3
20180817033421 72 137 5.0 5.0 0.00 0.00 0.00 45 1035.1
20180817032923 72 121 0.0 5.0 0.00 0.00 0.00 43 1035.0
20180817032420 73 146 0.0 5.0 0.00 0.00 0.00 42 1034.9
20180817031923 73 132 0.0 8.0 0.00 0.00 0.00 42 1034.9
20180817031420 73 124 2.0 8.0 0.00 0.00 0.00 45 1034.9
20180817030922 73 113 0.0 0.0 0.00 0.00 0.00 45 1035.0
20180817030419 73 127 0.0 2.0 0.00 0.00 0.00 45 1035.0
20180817025923 74 118 0.0 2.0 0.00 0.00 0.00 46 1034.9
20180817025420 74 83 0.0 2.0 0.00 0.00 0.00 45 1034.9
20180817024924 74 101 0.0 5.0 0.00 0.00 0.00 43 1034.9
20180817024419 74 123 0.0 5.0 0.00 0.00 0.00 42 1034.8
20180817023923 74 161 1.0 5.0 0.00 0.00 0.00 41 1034.9
20180817023418 75 145 1.0 5.0 0.00 0.00 0.00 42 1034.8
20180817022923 75 120 1.0 2.0 0.00 0.00 0.00 43 1034.7
20180817022419 76 108 1.0 2.0 0.00 0.00 0.00 43 1034.7
20180817021921 76 114 0.0 0.0 0.00 0.00 0.00 42 1034.5
20180817021419 77 117 0.0 0.0 0.00 0.00 0.00 41 1034.5
20180817020921 77 113 0.0 0.0 0.00 0.00 0.00 41 1034.5
20180817020418 77 111 0.0 2.0 0.00 0.00 0.00 40 1034.5
20180817015921 78 119 0.0 2.0 0.00 0.00 0.00 38 1034.4
20180817015419 78 109 0.0 0.0 0.00 0.00 0.00 39 1034.5
20180817014923 78 110 0.0 2.0 0.00 0.00 0.00 38 1034.5
20180817014419 79 108 0.0 2.0 0.00 0.00 0.00 36 1034.5
20180817013921 79 136 0.0 2.0 0.00 0.00 0.00 36 1034.4
20180817013417 79 117 0.0 2.0 0.00 0.00 0.00 35 1034.3
20180817012920 80 107 0.0 5.0 0.00 0.00 0.00 34 1034.3
20180817012418 80 132 2.0 10.0 0.00 0.00 0.00 33 1034.1
20180817011920 80 195 4.0 10.0 0.00 0.00 0.00 33 1033.9
20180817011418 81 136 2.0 5.0 0.00 0.00 0.00 33 1033.8
20180817010922 81 142 1.0 10.0 0.00 0.00 0.00 33 1033.9
20180817010418 81 134 1.0 10.0 0.00 0.00 0.00 32 1033.8
20180817005920 82 169 4.0 10.0 0.00 0.00 0.00 31 1033.7
20180817005417 82 213 5.0 13.0 0.00 0.00 0.00 31 1033.6
20180817004919 82 186 6.0 15.0 0.00 0.00 0.00 30 1033.7
20180817004418 83 195 6.0 15.0 0.00 0.00 0.00 30 1033.7
20180817003920 83 206 2.0 8.0 0.00 0.00 0.00 29 1033.7
20180817003417 83 148 2.0 10.0 0.00 0.00 0.00 25 1033.7
20180817002921 83 130 2.0 10.0 0.00 0.00 0.00 24 1033.6
20180817002417 83 123 2.0 8.0 0.00 0.00 0.00 23 1033.5
20180817001919 83 121 1.0 8.0 0.00 0.00 0.00 23 1033.6
20180817001417 84 122 0.0 8.0 0.00 0.00 0.00 23 1033.5
20180817000919 84 117 4.0 5.0 0.00 0.00 0.00 23 1033.5
20180817000416 84 102 0.0 10.0 0.00 0.00 0.00 23 1033.6
20180816235919 84 111 0.0 10.0 0.00 0.00 0.00 22 1033.5
20180816235415 84 105 5.0 10.0 0.00 0.00 0.00 23 1033.5
20180816234917 84 63 2.0 8.0 0.00 0.00 0.00 22 1033.3
20180816234415 84 94 0.0 10.0 0.00 0.00 0.00 22 1033.3
20180816233918 84 86 1.0 10.0 0.00 0.00 0.00 23 1033.3
20180816233417 84 112 0.0 8.0 0.00 0.00 0.00 23 1033.2
20180816232917 84 118 2.0 8.0 0.00 0.00 0.00 24 1033.2
20180816232417 85 91 1.0 10.0 0.00 0.00 0.00 23 1033.3
20180816231916 85 115 0.0 10.0 0.00 0.00 0.00 23 1033.3
20180816231415 85 75 0.0 8.0 0.00 0.00 0.00 23 1033.3
20180816230917 85 87 1.0 8.0 0.00 0.00 0.00 23 1033.3
20180816230416 85 97 0.0 5.0 0.00 0.00 0.00 21 1033.3
20180816225918 85 97 0.0 5.0 0.00 0.00 0.00 21 1033.3
20180816225414 85 94 5.0 5.0 0.00 0.00 0.00 21 1033.2
20180816224918 85 98 0.0 5.0 0.00 0.00 0.00 21 1033.3
20180816224416 85 110 0.0 5.0 0.00 0.00 0.00 20 1033.3
20180816223916 85 121 1.0 5.0 0.00 0.00 0.00 20 1033.2
20180816223415 85 113 0.0 5.0 0.00 0.00 0.00 21 1033.2
20180816222917 86 102 2.0 5.0 0.00 0.00 0.00 21 1033.2
20180816222414 85 51 0.0 8.0 0.00 0.00 0.00 20 1033.2
20180816221917 85 103 0.0 8.0 0.00 0.00 0.00 21 1033.3
20180816221413 85 70 0.0 8.0 0.00 0.00 0.00 20 1033.3
20180816220916 85 64 3.0 5.0 0.00 0.00 0.00 20 1033.3
20180816220413 85 71 0.0 10.0 0.00 0.00 0.00 21 1033.3
20180816215915 85 47 8.0 10.0 0.00 0.00 0.00 21 1033.3
20180816215414 85 76 2.0 5.0 0.00 0.00 0.00 21 1033.3
20180816214917 85 64 2.0 5.0 0.00 0.00 0.00 21 1033.5
20180816214415 85 99 0.0 8.0 0.00 0.00 0.00 14 1033.5
20180816213914 85 101 0.0 13.0 0.00 0.00 0.00 19 1033.6
20180816213413 85 75 1.0 13.0 0.00 0.00 0.00 20 1033.6
20180816212915 85 317 9.0 10.0 0.00 0.00 0.00 21 1033.6
20180816212415 85 31 0.0 8.0 0.00 0.00 0.00 22 1033.6
20180816211914 86 52 4.0 10.0 0.00 0.00 0.00 21 1033.6
20180816211412 86 80 3.0 10.0 0.00 0.00 0.00 21 1033.6
20180816210915 86 25 5.0 8.0 0.00 0.00 0.00 20 1033.5
20180816210412 86 55 4.0 10.0 0.00 0.00 0.00 19 1033.5
20180816205915 86 126 0.0 13.0 0.00 0.00 0.00 20 1033.5
20180816205412 86 55 3.0 13.0 0.00 0.00 0.00 19 1033.6
20180816204914 86 54 5.0 13.0 0.00 0.00 0.00 21 1033.6
20180816204413 85 105 0.0 15.0 0.00 0.00 0.00 21 1033.6
20180816203915 85 20 10.0 15.0 0.00 0.00 0.00 22 1033.5
20180816203411 85 53 2.0 13.0 0.00 0.00 0.00 21 1033.6
20180816202914 85 53 6.0 8.0 0.00 0.00 0.00 22 1033.5
20180816202412 85 84 1.0 10.0 0.00 0.00 0.00 23 1033.5
20180816201914 84 39 6.0 15.0 0.00 0.00 0.00 24 1033.6
20180816201412 84 65 8.0 15.0 0.00 0.00 0.00 25 1033.7
20180816200914 84 67 2.0 10.0 0.00 0.00 0.00 25 1033.6
20180816200411 84 276 0.0 10.0 0.00 0.00 0.00 24 1033.6
20180816195913 84 37 8.0 10.0 0.00 0.00 0.00 25 1033.7
20180816195411 83 34 4.0 13.0 0.00 0.00 0.00 25 1033.8
20180816194914 83 29 4.0 13.0 0.00 0.00 0.00 26 1033.8
20180816194410 83 73 3.0 10.0 0.00 0.00 0.00 27 1033.8
20180816193913 83 37 2.0 13.0 0.00 0.00 0.00 29 1033.8
20180816193410 82 71 6.0 13.0 0.00 0.00 0.00 28 1033.8
20180816192912 82 65 5.0 13.0 0.00 0.00 0.00 31 1033.8
20180816192410 82 354 2.0 13.0 0.00 0.00 0.00 29 1033.9
20180816191912 81 89 1.0 10.0 0.00 0.00 0.00 32 1033.8
20180816191411 81 263 3.0 13.0 0.00 0.00 0.00 31 1033.9
20180816190913 81 95 0.0 13.0 0.00 0.00 0.00 31 1033.9
20180816190409 81 63 5.0 13.0 0.00 0.00 0.00 32 1033.9
20180816185918 81 52 4.0 13.0 0.00 0.00 0.00 33 1034.1
20180816185410 81 63 4.0 13.0 0.00 0.00 0.00 33 1034.1
20180816184912 80 9 6.0 13.0 0.00 0.00 0.00 33 1034.1
20180816184410 80 62 2.0 13.0 0.00 0.00 0.00 34 1034.2
20180816183912 80 89 1.0 10.0 0.00 0.00 0.00 34 1034.2
20180816183413 80 45 6.0 10.0 0.00 0.00 0.00 38 1034.1
20180816182912 80 12 1.0 8.0 0.00 0.00 0.00 37 1034.2
20180816182408 80 98 0.0 8.0 0.00 0.00 0.00 38 1034.4
20180816181914 80 98 0.0 8.0 0.00 0.00 0.00 35 1034.4
20180816181410 79 99 2.0 8.0 0.00 0.00 0.00 37 1034.5
20180816180911 79 24 3.0 8.0 0.00 0.00 0.00 35 1034.5
20180816180409 79 106 0.0 10.0 0.00 0.00 0.00 37 1034.5
20180816175912 79 39 5.0 13.0 0.00 0.00 0.00 35 1034.5
20180816175408 79 79 8.0 13.0 0.00 0.00 0.00 35 1034.7
20180816174910 78 120 0.0 10.0 0.00 0.00 0.00 38 1034.5
20180816174408 78 38 3.0 10.0 0.00 0.00 0.00 40 1034.7
20180816173912 78 76 0.0 10.0 0.00 0.00 0.00 39 1034.7
20180816173408 77 83 3.0 8.0 0.00 0.00 0.00 39 1034.8
20180816172913 77 61 2.0 8.0 0.00 0.00 0.00 40 1034.9
20180816172408 77 41 6.0 8.0 0.00 0.00 0.00 41 1034.9
20180816171910 77 43 2.0 8.0 0.00 0.00 0.00 43 1034.8
20180816171407 77 109 1.0 8.0 0.00 0.00 0.00 41 1034.9
20180816170910 77 58 3.0 10.0 0.00 0.00 0.00 41 1035.0
20180816170407 77 27 10.0 10.0 0.00 0.00 0.00 42 1035.0
20180816165908 77 85 2.0 10.0 0.00 0.00 0.00 42 1035.0
20180816165408 76 158 0.0 8.0 0.00 0.00 0.00 41 1034.9
20180816164909 76 72 2.0 8.0 0.00 0.00 0.00 41 1035.0
20180816164407 75 75 0.0 10.0 0.00 0.00 0.00 39 1035.0
20180816163909 75 119 1.0 10.0 0.00 0.00 0.00 43 1035.0
20180816163402 75 31 4.0 8.0 0.00 0.00 0.00 41 1034.9
20180816162909 74 109 0.0 8.0 0.00 0.00 0.00 42 1034.9
20180816162406 74 71 2.0 10.0 0.00 0.00 0.00 42 1034.9
20180816161909 74 68 3.0 13.0 0.00 0.00 0.00 42 1034.8
20180816161406 74 44 2.0 13.0 0.00 0.00 0.00 43 1034.8
20180816160908 74 106 1.0 10.0 0.00 0.00 0.00 44 1034.8
20180816160407 73 85 2.0 10.0 0.00 0.00 0.00 46 1034.7
20180816155908 73 14 2.0 8.0 0.00 0.00 0.00 46 1034.5
20180816155408 73 17 3.0 8.0 0.00 0.00 0.00 48 1034.5
20180816154907 72 95 0.0 8.0 0.00 0.00 0.00 48 1034.4
20180816154405 72 24 3.0 8.0 0.00 0.00 0.00 49 1034.4
20180816153907 72 74 2.0 8.0 0.00 0.00 0.00 49 1034.4
20180816153407 72 41 4.0 10.0 0.00 0.00 0.00 49 1034.3
20180816152907 72 40 3.0 10.0 0.00 0.00 0.00 49 1034.3
20180816152406 72 101 0.0 8.0 0.00 0.00 0.00 50 1034.2
20180816151907 72 92 0.0 8.0 0.00 0.00 0.00 51 1034.3
20180816151407 71 115 0.0 5.0 0.00 0.00 0.00 50 1034.4
20180816150906 71 119 0.0 8.0 0.00 0.00 0.00 51 1034.3
20180816150404 71 66 2.0 8.0 0.00 0.00 0.00 53 1034.4
20180816145906 71 60 1.0 5.0 0.00 0.00 0.00 53 1034.3
20180816145405 71 94 0.0 5.0 0.00 0.00 0.00 52 1034.2
20180816144907 71 100 0.0 5.0 0.00 0.00 0.00 51 1034.1
20180816144404 71 71 3.0 5.0 0.00 0.00 0.00 54 1034.1
20180816143907 71 74 1.0 5.0 0.00 0.00 0.00 56 1034.2
20180816143406 70 79 0.0 2.0 0.00 0.00 0.00 51 1034.2
20180816142906 70 106 0.0 0.0 0.00 0.00 0.00 52 1034.1
20180816142404 69 97 0.0 0.0 0.00 0.00 0.00 52 1034.1
20180816141905 69 107 0.0 2.0 0.00 0.00 0.00 55 1033.9
20180816141403 69 91 0.0 2.0 0.00 0.00 0.00 55 1033.9
20180816140906 68 75 0.0 2.0 0.00 0.00 0.00 55 1033.9
20180816140404 68 73 0.0 2.0 0.00 0.00 0.00 57 1033.9
20180816135906 67 112 0.0 0.0 0.00 0.00 0.00 57 1033.9
20180816135403 66 106 0.0 0.0 0.00 0.00 0.00 60 1033.8
20180816134907 65 105 0.0 0.0 0.00 0.00 0.00 60 1033.8
20180816134402 64 105 0.0 0.0 0.00 0.00 0.00 64 1033.7
20180816133908 64 105 0.0 0.0 0.00 0.00 0.00 66 1033.6
20180816133403 63 105 0.0 0.0 0.00 0.00 0.00 68 1033.6
20180816132908 62 107 0.0 0.0 0.00 0.00 0.00 69 1033.3
20180816132403 62 102 0.0 0.0 0.00 0.00 0.00 70 1033.3
20180816131903 61 116 0.0 0.0 0.00 0.00 0.00 71 1033.2
20180816131406 60 106 0.0 0.0 0.00 0.00 0.00 73 1033.2
20180816130904 59 124 0.0 0.0 0.00 0.00 0.00 75 1033.1
20180816130403 59 110 0.0 0.0 0.00 0.00 0.00 77 1033.1
20180816125905 58 114 0.0 2.0 0.00 0.00 0.00 79 1033.1
20180816125403 58 113 0.0 2.0 0.00 0.00 0.00 80 1033.1
20180816124906 57 107 0.0 0.0 0.00 0.00 0.00 81 1033.1
20180816124402 57 108 0.0 2.0 0.00 0.00 0.00 83 1032.9
20180816123904 57 118 0.0 2.0 0.00 0.00 0.00 83 1032.9
20180816123402 57 127 0.0 0.0 0.00 0.00 0.00 83 1032.8
20180816122903 57 119 0.0 2.0 0.00 0.00 0.00 83 1032.6
20180816122401 57 111 0.0 2.0 0.00 0.00 0.00 83 1032.6
20180816121903 58 122 0.0 2.0 0.00 0.00 0.00 83 1032.5
20180816121401 58 110 0.0 2.0 0.00 0.00 0.00 84 1032.4
20180816120902 58 106 0.0 2.0 0.00 0.00 0.00 83 1032.3
20180816120400 58 113 0.0 0.0 0.00 0.00 0.00 81 1032.2
20180816115902 59 113 0.0 0.0 0.00 0.00 0.00 81 1032.2
20180816115401 59 101 0.0 0.0 0.00 0.00 0.00 80 1032.2
20180816114903 59 108 0.0 0.0 0.00 0.00 0.00 80 1032.0
20180816114407 59 108 0.0 0.0 0.00 0.00 0.00 78 1031.9
20180816113903 59 114 0.0 0.0 0.00 0.00 0.00 76 1032.0
20180816113400 59 113 0.0 0.0 0.00 0.00 0.00 76 1031.9
20180816112905 59 111 0.0 0.0 0.00 0.00 0.00 76 1031.8
20180816112400 59 119 0.0 0.0 0.00 0.00 0.00 75 1031.8
20180816111901 60 105 0.0 0.0 0.00 0.00 0.00 75 1031.7
20180816111403 60 105 0.0 0.0 0.00 0.00 0.00 73 1031.7
20180816110902 60 110 0.0 0.0 0.00 0.00 0.00 74 1031.7
20180816110400 60 113 0.0 0.0 0.00 0.00 0.00 75 1031.8
20180816105901 61 111 0.0 0.0 0.00 0.00 0.00 74 1031.7
20180816105359 61 110 0.0 0.0 0.00 0.00 0.00 71 1031.6
20180816104901 62 111 0.0 0.0 0.00 0.00 0.00 70 1031.6
20180816104400 62 108 0.0 0.0 0.00 0.00 0.00 71 1031.7
20180816103902 63 108 0.0 0.0 0.00 0.00 0.00 69 1031.6
20180816103400 63 108 0.0 0.0 0.00 0.00 0.00 63 1031.7
20180816102900 63 109 0.0 2.0 0.00 0.00 0.00 63 1031.7
20180816102355 63 135 0.0 2.0 0.00 0.00 0.00 63 1031.6
20180816101901 63 142 0.0 0.0 0.00 0.00 0.00 64 1031.7
20180816101359 63 131 0.0 0.0 0.00 0.00 0.00 65 1031.7
20180816100901 63 125 0.0 0.0 0.00 0.00 0.00 67 1031.7
20180816100400 63 110 0.0 2.0 0.00 0.00 0.00 66 1031.6
20180816095859 63 130 0.0 2.0 0.00 0.00 0.00 63 1031.7
20180816095358 63 97 0.0 0.0 0.00 0.00 0.00 63 1031.6
20180816094859 64 46 0.0 2.0 0.00 0.00 0.00 63 1031.7
20180816094359 63 102 0.0 2.0 0.00 0.00 0.00 63 1031.6
20180816093900 64 76 0.0 2.0 0.00 0.00 0.00 63 1031.6
20180816093437 64 109 0.0 2.0 0.00 0.00 0.00 63 1031.6
20180816093358 64 95 0.0 2.0 0.00 0.00 0.00 64 1031.6
20180816093201 64 101 0.0 2.0 0.00 0.00 0.00 63 1031.7
20180816091859 64 101 0.0 2.0 0.00 0.00 0.00 64 1031.7
20180816091357 64 101 0.0 2.0 0.00 0.00 0.00 63 1031.6
20180816090859 65 136 0.0 2.0 0.00 0.00 0.00 62 1031.4
20180816090359 65 112 0.0 0.0 0.00 0.00 0.00 63 1031.6
20180816085859 65 108 0.0 0.0 0.00 0.00 0.00 63 1031.6
20180816085357 65 110 0.0 0.0 0.00 0.00 0.00 63 1031.4
20180816084900 65 119 0.0 8.0 0.00 0.00 0.00 62 1031.6
20180816084358 66 102 0.0 8.0 0.00 0.00 0.00 61 1031.6
20180816083858 66 107 0.0 5.0 0.00 0.00 0.00 61 1031.4
20180816083357 66 97 0.0 5.0 0.00 0.00 0.00 61 1031.4
20180816082858 66 16 2.0 2.0 0.00 0.00 0.00 62 1031.6
20180816082357 66 109 0.0 5.0 0.00 0.00 0.00 62 1031.6
20180816081858 66 123 0.0 5.0 0.00 0.00 0.00 61 1031.4
20180816081356 66 264 2.0 5.0 0.00 0.00 0.00 61 1031.6
20180816080858 66 152 1.0 2.0 0.00 0.00 0.00 62 1031.4
20180816080356 66 96 1.0 5.0 0.00 0.00 0.00 61 1031.4
20180816075857 66 217 1.0 8.0 0.00 0.00 0.00 61 1031.4
20180816075355 66 131 0.0 8.0 0.00 0.00 0.00 61 1031.3
20180816074858 66 7 2.0 5.0 0.00 0.00 0.00 64 1031.2
20180816074355 67 105 0.0 2.0 0.00 0.00 0.00 63 1031.2
20180816073857 67 110 0.0 2.0 0.00 0.00 0.00 61 1031.2